Deming, NM

12:59 PM MST on November 20, 2017 (GMT -0700)
Deming Municipal

Weather History for KDMN - February, 2014

Change the Weather History Date:

Friday, February 7, 2014

  Actual Average Record
Temperature  
Mean Temperature 45 °F 46 °F  
Max Temperature 58 °F 61 °F 77 °F (1963)
Min Temperature 31 °F 30 °F 10 °F (1964)
Degree Days  
Heating Degree Days 20    
Moisture  
Dew Point 25 °F    
Average Humidity 59    
Maximum Humidity 89    
Minimum Humidity 28    
Precipitation  
Precipitation T in 0.02 in 0.50 in (1986)
Month to date precipitation T 0.14  
Year to date precipitation T 0.75  
Sea Level Pressure  
Sea Level Pressure 30.02 in    
Wind  
Wind Speed 9 mph (West)    
Max Wind Speed 28 mph    
Max Gust Speed 33 mph    
Visibility 10 miles    
Events      
T = Trace of Precipitation, MM = Missing Value Source: NWS Daily Summary

Daily Weather History Graph

Daily Weather History Graph

Search for Another Location

Airport or City:

Trip Planner

Search our weather history database for the weather conditions in past years. The results will help you decide how hot, cold, wet, or windy it might be!

Date:

Astronomy

Feb. 07, 2014 Rise Set
Actual Time 7:00 AM MST 5:50 PM MST
Civil Twilight 6:35 AM MST 6:15 PM MST
Nautical Twilight 6:05 AM MST 6:44 PM MST
Astronomical Twilight 5:37 AM MST 7:13 PM MST
Moon 12:07 PM MST (2/7) 1:16 AM MST (2/7)
Length of Visible Light 11h 40m
Length of Day
10h 49m
First Quarter, 60% of the Moon is Illuminated
Feb 7
First Quarter
Feb 14
Full
Feb 22
Last Quarter
Mar 1
New
Mar 8
First Quarter

Hourly Weather History & Observations

Time (MST) Temp. Windchill Dew Point Humidity Pressure Visibility Wind Dir Wind Speed Gust Speed Precip Events Conditions
12:53 AM 34.0 °F 31.0 °F 16.0 °F 48% 29.98 in 10.0 mi NW 3.5 mph - N/A   Overcast
1:53 AM 32.0 °F 26.4 °F 16.0 °F 52% 29.98 in 10.0 mi WNW 5.8 mph - N/A   Mostly Cloudy
2:53 AM 34.0 °F 26.6 °F 18.0 °F 52% 29.97 in 10.0 mi NW 9.2 mph - N/A   Mostly Cloudy
3:53 AM 34.0 °F 29.8 °F 30.0 °F 85% 29.96 in 10.0 mi SW 4.6 mph - 0.00 in   Mostly Cloudy
4:53 AM 32.0 °F 28.7 °F 27.0 °F 82% 29.98 in 10.0 mi WNW 3.5 mph - N/A   Scattered Clouds
5:53 AM 33.1 °F 27.7 °F 27.0 °F 78% 30.01 in 10.0 mi WSW 5.8 mph - N/A   Overcast
6:53 AM 32.0 °F 25.6 °F 23.0 °F 69% 30.03 in 10.0 mi WSW 6.9 mph - N/A   Overcast
7:53 AM 33.1 °F 30.0 °F 24.1 °F 70% 30.06 in 10.0 mi WSW 3.5 mph - N/A   Partly Cloudy
8:53 AM 41.0 °F 38.0 °F 28.0 °F 60% 30.06 in 10.0 mi SW 4.6 mph - N/A   Clear
9:53 AM 46.9 °F - 28.9 °F 50% 30.07 in 10.0 mi West 10.4 mph - N/A   Clear
10:53 AM 50.0 °F - 28.9 °F 44% 30.07 in 10.0 mi West 12.7 mph 16.1 mph N/A   Clear
11:53 AM 53.1 °F - 28.9 °F 40% 30.05 in 10.0 mi West 13.8 mph 20.7 mph N/A   Mostly Cloudy
12:53 PM 54.0 °F - 28.0 °F 37% 30.01 in 10.0 mi WSW 17.3 mph 28.8 mph N/A   Partly Cloudy
1:53 PM 55.9 °F - 27.0 °F 33% 30.00 in 10.0 mi West 20.7 mph 28.8 mph N/A   Partly Cloudy
2:53 PM 57.9 °F - 27.0 °F 31% 29.98 in 10.0 mi West 19.6 mph 24.2 mph N/A   Scattered Clouds
3:53 PM 57.0 °F - 25.0 °F 29% 29.96 in 10.0 mi West 17.3 mph - N/A   Clear
4:53 PM 55.0 °F - 26.1 °F 33% 30.00 in 10.0 mi West 19.6 mph 28.8 mph N/A   Clear
5:53 PM 52.0 °F - 26.1 °F 37% 30.03 in 10.0 mi WNW 12.7 mph - N/A   Clear
6:53 PM 46.9 °F - 26.1 °F 44% 30.06 in 10.0 mi WNW 5.8 mph - N/A   Clear
7:53 PM 45.0 °F 41.8 °F 25.0 °F 46% 30.08 in 10.0 mi West 5.8 mph - N/A   Clear
8:53 PM 45.0 °F 41.2 °F 27.0 °F 49% 30.05 in 10.0 mi West 6.9 mph - N/A   Clear
9:53 PM 41.0 °F 37.1 °F 25.0 °F 53% 30.06 in 10.0 mi SW 5.8 mph - N/A   Clear
10:53 PM 37.9 °F 34.4 °F 24.1 °F 57% 30.08 in 10.0 mi WSW 4.6 mph - N/A   Clear
11:53 PM 36.0 °F 33.3 °F 24.1 °F 62% 30.07 in 10.0 mi SSW 3.5 mph - N/A   Clear